Location: Alladorf
(49.9620°N, 11.3790°E)
Time: 21:11:04
(UTC+00:00)

Meteor 2-6 Rocket - Pass Details

Date: 29 November 2020
Orbit: 806 x 914 km, 81.3° (Epoch: 24 January)

Event Time Altitude Azimuth Distance (km) Brightness Sun altitude
Exits shadow 04:30:21 - 349° (N) 2,896 6.8 -21.5°
Reaches altitude 10° 04:31:38 10° 350° (N) 2,400 6.4 -21.3°
Maximum altitude 04:37:03 77° 77° (ENE) 836 4.2 -20.4°
Drops below altitude 10° 04:42:28 10° 164° (SSE) 2,407 6.9 -19.5°
Sets 04:44:53 0° 166° (SSE) 3,346 7.7 -19.2°
